| time (UTC) | temp F | wind direction | speed MPH | gust MPH | rain 1hr in | rain 24hr in | rain mn in | humidity % | barometer mb |
| 20260831140048 | 77 | 220 | 1.0 | 4.0 | 0.00 | 0.01 | 0.00 | 83 | 1018.7 |
| 20260831134545 | 76 | 0 | 1.0 | 6.0 | 0.00 | 0.01 | 0.00 | 84 | 1018.7 |
| 20260831133046 | 75 | 238 | 1.0 | 4.0 | 0.00 | 0.01 | 0.00 | 86 | 1018.6 |
| 20260831131539 | 74 | 225 | 0.0 | 4.0 | 0.00 | 0.01 | 0.00 | 87 | 1018.8 |
| 20260831130049 | 73 | 146 | 1.0 | 3.0 | 0.00 | 0.01 | 0.00 | 88 | 1018.8 |
| 20260831124544 | 72 | 121 | 0.0 | 2.0 | 0.00 | 0.01 | 0.00 | 89 | 1018.7 |
| 20260831123041 | 72 | 0 | 0.0 | 0.0 | 0.00 | 0.01 | 0.00 | 89 | 1018.6 |
| 20260831121545 | 72 | 151 | 0.0 | 1.0 | 0.00 | 0.01 | 0.00 | 89 | 1018.6 |
| 20260831120043 | 72 | 0 | 0.0 | 1.0 | 0.00 | 0.01 | 0.00 | 89 | 1018.6 |
| 20260831114548 | 72 | 0 | 0.0 | 1.0 | 0.00 | 0.01 | 0.00 | 88 | 1018.6 |
| 20260831113039 | 72 | 0 | 0.0 | 1.0 | 0.00 | 0.01 | 0.00 | 88 | 1018.5 |
| 20260831111550 | 72 | 0 | 0.0 | 4.0 | 0.00 | 0.01 | 0.00 | 88 | 1018.3 |
| 20260831110055 | 71 | 196 | 0.0 | 3.0 | 0.00 | 0.01 | 0.00 | 88 | 1018.4 |
| 20260831104541 | 71 | 0 | 0.0 | 3.0 | 0.00 | 0.01 | 0.00 | 88 | 1018.3 |
| 20260831103044 | 71 | 155 | 1.0 | 4.0 | 0.00 | 0.01 | 0.00 | 88 | 1018.0 |
| 20260831101551 | 71 | 78 | 1.0 | 4.0 | 0.00 | 0.01 | 0.00 | 88 | 1018.0 |
| 20260831100045 | 71 | 214 | 0.0 | 4.0 | 0.00 | 0.01 | 0.00 | 88 | 1017.7 |
| 20260831094541 | 71 | 102 | 0.0 | 3.0 | 0.00 | 0.01 | 0.00 | 88 | 1017.8 |
| 20260831093049 | 71 | 153 | 0.0 | 2.0 | 0.00 | 0.01 | 0.00 | 88 | 1017.9 |
| 20260831092002 | 71 | 238 | 0.0 | 4.0 | 0.00 | 0.01 | 0.00 | 88 | 1017.8 |
| 20260831090043 | 71 | 0 | 0.0 | 1.0 | 0.00 | 0.01 | 0.00 | 88 | 1017.8 |
| 20260831084542 | 71 | 0 | 0.0 | 2.0 | 0.00 | 0.01 | 0.00 | 88 | 1018.1 |
| 20260831083046 | 71 | 0 | 0.0 | 1.0 | 0.00 | 0.01 | 0.00 | 87 | 1018.0 |
| 20260831081543 | 71 | 0 | 0.0 | 2.0 | 0.00 | 0.01 | 0.00 | 87 | 1017.9 |
| 20260831080038 | 71 | 223 | 0.0 | 3.0 | 0.00 | 0.01 | 0.00 | 87 | 1018.0 |
| 20260831074545 | 71 | 173 | 0.0 | 2.0 | 0.00 | 0.01 | 0.00 | 87 | 1018.1 |
| 20260831073048 | 71 | 0 | 0.0 | 1.0 | 0.00 | 0.01 | 0.00 | 87 | 1018.1 |
| 20260831071541 | 71 | 137 | 0.0 | 3.0 | 0.00 | 0.01 | 0.00 | 87 | 1018.1 |
| 20260831070044 | 71 | 154 | 0.0 | 5.0 | 0.00 | 0.01 | 0.00 | 87 | 1018.1 |
| 20260831064542 | 71 | 0 | 0.0 | 4.0 | 0.00 | 0.01 | 0.00 | 87 | 1018.1 |
| 20260831063042 | 70 | 0 | 0.0 | 3.0 | 0.00 | 0.01 | 0.00 | 87 | 1018.2 |
| 20260831061539 | 70 | 192 | 0.0 | 4.0 | 0.00 | 0.01 | 0.00 | 87 | 1018.4 |
| 20260831060041 | 70 | 180 | 0.0 | 7.0 | 0.00 | 0.01 | 0.00 | 87 | 1018.5 |
| 20260831054543 | 70 | 143 | 0.0 | 5.0 | 0.00 | 0.01 | 0.00 | 87 | 1018.6 |
| 20260831053040 | 70 | 174 | 0.0 | 6.0 | 0.00 | 0.01 | 0.00 | 87 | 1018.8 |
| 20260831051546 | 70 | 163 | 0.0 | 2.0 | 0.00 | 0.01 | 0.00 | 87 | 1018.8 |
| 20260831050045 | 71 | 0 | 0.0 | 4.0 | 0.00 | 0.01 | 0.00 | 87 | 1018.7 |
| 20260831044559 | 71 | 0 | 0.0 | 6.0 | 0.00 | 0.01 | 0.00 | 87 | 1018.6 |
| 20260831043047 | 71 | 208 | 0.0 | 3.0 | 0.00 | 0.01 | 0.00 | 87 | 1018.6 |
| 20260831041602 | 71 | 88 | 1.0 | 4.0 | 0.00 | 0.01 | 0.00 | 88 | 1018.7 |
| 20260831040044 | 71 | 113 | 0.0 | 5.0 | 0.00 | 0.01 | 0.00 | 88 | 1018.7 |
| 20260831034544 | 71 | 0 | 0.0 | 2.0 | 0.00 | 0.01 | 0.01 | 88 | 1018.8 |
| 20260831033038 | 71 | 0 | 0.0 | 3.0 | 0.00 | 0.01 | 0.01 | 88 | 1018.9 |
| 20260831031544 | 71 | 0 | 0.0 | 2.0 | 0.00 | 0.01 | 0.01 | 88 | 1018.8 |
| 20260831030048 | 71 | 0 | 0.0 | 4.0 | 0.00 | 0.01 | 0.01 | 89 | 1019.2 |
| 20260831024543 | 70 | 169 | 0.0 | 4.0 | 0.00 | 0.01 | 0.01 | 90 | 1019.2 |
| 20260831023046 | 70 | 0 | 0.0 | 3.0 | 0.00 | 0.01 | 0.01 | 91 | 1019.2 |
| 20260831021542 | 70 | 0 | 0.0 | 2.0 | 0.00 | 0.01 | 0.01 | 91 | 1019.2 |
| 20260831020041 | 69 | 0 | 0.0 | 1.0 | 0.00 | 0.01 | 0.01 | 91 | 1019.4 |
| 20260831014543 | 69 | 124 | 0.0 | 1.0 | 0.00 | 0.01 | 0.01 | 91 | 1019.6 |
| 20260831013050 | 70 | 0 | 0.0 | 1.0 | 0.00 | 0.01 | 0.01 | 91 | 1020.0 |
| 20260831011545 | 70 | 0 | 0.0 | 1.0 | 0.00 | 0.01 | 0.01 | 90 | 1020.3 |
| 20260831010046 | 70 | 0 | 0.0 | 0.0 | 0.00 | 0.01 | 0.01 | 90 | 1020.6 |
| 20260831004543 | 71 | 0 | 0.0 | 0.0 | 0.00 | 0.01 | 0.01 | 90 | 1020.3 |
| 20260831003044 | 71 | 0 | 0.0 | 0.0 | 0.00 | 0.01 | 0.01 | 89 | 1020.0 |
| 20260831001543 | 71 | 0 | 0.0 | 0.0 | 0.00 | 0.01 | 0.01 | 88 | 1019.9 |
| 20260831000045 | 72 | 0 | 0.0 | 0.0 | 0.00 | 0.01 | 0.01 | 88 | 1019.7 |
| 20260830234548 | 72 | 0 | 0.0 | 0.0 | 0.00 | 0.01 | 0.01 | 87 | 1019.8 |
| 20260830233044 | 73 | 0 | 0.0 | 0.0 | 0.00 | 0.01 | 0.01 | 86 | 1019.8 |
| 20260830231558 | 73 | 0 | 0.0 | 0.0 | 0.00 | 0.01 | 0.01 | 85 | 1019.7 |
| 20260830230049 | 74 | 0 | 0.0 | 0.0 | 0.00 | 0.01 | 0.01 | 84 | 1019.4 |
| 20260830224549 | 75 | 0 | 0.0 | 0.0 | 0.00 | 0.01 | 0.01 | 83 | 1018.9 |
| 20260830223043 | 75 | 0 | 0.0 | 1.0 | 0.00 | 0.01 | 0.01 | 81 | 1018.6 |
| 20260830221541 | 75 | 101 | 0.0 | 2.0 | 0.00 | 0.01 | 0.01 | 80 | 1018.1 |
| 20260830220046 | 76 | 0 | 0.0 | 4.0 | 0.00 | 0.01 | 0.01 | 79 | 1018.0 |